Weather History for HEGN - June, 2013

Change the Weather History Date:

Monday, June 3, 2013

  Actual Average Record
Temperature  
Mean Temperature 94 °F -  
Max Temperature 110 °F 93 °F - ()
Min Temperature 78 °F 77 °F - ()
Cooling Degree Days 29    
Growing Degree Days 44 (Base 50)    
Moisture  
Dew Point 45 °F    
Average Humidity 20    
Maximum Humidity 40    
Minimum Humidity 4    
Precipitation  
Precipitation 0.00 in - - ()
Sea Level Pressure  
Sea Level Pressure 29.72 in    
Wind  
Wind Speed 7 mph ()    
Max Wind Speed 26 mph    
Max Gust Speed -    
Visibility 6.0 miles    
Events      
T = Trace of Precipitation, MM = Missing Value Source: Averaged Metar Reports

Daily Weather History Graph

Daily Weather History Graph

Search for Another Location

Airport or City:

Trip Planner

Search our weather history database for the weather conditions in past years. The results will help you decide how hot, cold, wet, or windy it might be!

Date:

Astronomy

Jun. 03, 2013 Rise Set
Actual Time 4:50 AM EET 6:36 PM EET
Civil Twilight 4:23 AM EET 7:02 PM EET
Nautical Twilight 3:52 AM EET 7:33 PM EET
Astronomical Twilight 3:19 AM EET 8:06 PM EET
Moon 1:12 AM EET (6/3) 2:07 PM EET (6/3)
Length of Visible Light 14h 38m
Length of Day
13h 45m
Waning Crescent, 24% of the Moon is Illuminated
Jun 3
Waning Crescent
Jun 8
New
Jun 16
First Quarter
Jun 23
Full
Jun 30
Last Quarter

Hourly Weather History & Observations

Time (EET) Temp. Heat Index Dew Point Humidity Pressure Visibility Wind Dir Wind Speed Gust Speed Precip Events Conditions
12:00 AM 84.2 °F - 28.4 °F 13% 29.71 in - Calm Calm - N/A   Clear
1:00 AM 84.2 °F - 23.0 °F 11% 29.71 in - Calm Calm - N/A   Clear
2:00 AM 84 °F - 25 °F 5% 29.72 in 6 mi NNW 4.6 mph - -  
2:00 AM 84.2 °F - 24.8 °F 11% 29.71 in - NNW 4.6 mph - N/A   Clear
3:00 AM 82.4 °F - 23.0 °F 11% 29.71 in - Calm Calm - N/A   Clear
4:00 AM 80.6 °F - 21.2 °F 11% 29.71 in - Calm Calm - N/A   Clear
5:00 AM 78.8 °F - 21.2 °F 12% 29.71 in - Calm Calm - N/A   Clear
6:00 AM 82.4 °F - 24.8 °F 12% 29.74 in - West 6.9 mph - N/A   Clear
7:00 AM 93.2 °F - 28.4 °F 10% 29.74 in - West 6.9 mph - N/A   Clear
8:00 AM 103 °F - 29 °F 4% 29.76 in 6 mi WNW 5.8 mph - -  
8:00 AM 102.2 °F - 28.4 °F 7% 29.74 in - WNW 5.8 mph - N/A   Clear
9:00 AM 107.6 °F - 50.0 °F 15% 29.74 in - North 4.6 mph - N/A   Clear
10:00 AM 109.4 °F - 32.0 °F 7% 29.74 in - North 13.8 mph - N/A   Clear
11:00 AM 104.0 °F - 44.6 °F 13% 29.74 in - North 17.3 mph - N/A   Clear
12:00 PM 105.8 °F 105.5 °F 57.2 °F 20% 29.74 in - North 11.5 mph - N/A   Clear
1:00 PM 104.0 °F 106.6 °F 62.6 °F 26% 29.71 in - North 15.0 mph - N/A   Clear
2:00 PM 104 °F - 62 °F 17% 29.71 in 6 mi NNE 16.1 mph - -  
2:00 PM 104.0 °F 106.6 °F 62.6 °F 26% 29.71 in - NNE 16.1 mph - N/A   Clear
3:00 PM 102.2 °F 105.5 °F 64.4 °F 29% 29.68 in - NNE 13.8 mph - N/A   Clear
4:00 PM 100.4 °F 103.6 °F 64.4 °F 31% 29.68 in - NNE 16.1 mph - N/A   Clear
5:00 PM 96.8 °F 100.7 °F 66.2 °F 37% 29.68 in - North 21.9 mph - N/A   Clear
6:00 PM 96.8 °F 100.7 °F 66.2 °F 37% 29.68 in - North 21.9 mph - N/A   Clear
7:00 PM 96.8 °F 97.1 °F 60.8 °F 30% 29.68 in - North 25.3 mph - N/A   Clear
8:00 PM 96 °F - 58 °F 19% 29.73 in 6 mi NW 23.0 mph - -  
8:00 PM 96.8 °F 95.8 °F 57.2 °F 27% 29.71 in - NW 23.0 mph - N/A   Clear
9:00 PM 95.0 °F 95.2 °F 60.8 °F 32% 29.74 in - WNW 26.5 mph - N/A   Clear
10:00 PM 91.4 °F 91.4 °F 60.8 °F 36% 29.74 in - WNW 19.6 mph - N/A   Clear
11:00 PM 89.6 °F 90.1 °F 62.6 °F 40% 29.77 in - North 9.2 mph - N/A   Clear